[[{"header":{"parameterUnit":"m.s-1","parameterCategory":1,"la1":30.2991,"la2":30.254,"lo1":-89.0895,"lo2":-89.0444,"dy":0.0017,"dx":0.0017,"nx":28,"ny":28,"refTime":"2023-06-18T21:00:00:Z","depth":0,"parameterNumber":2,"parameterNumberName":"U-component_of_WINDS"},"data":[0,0,0,0,0,0,0,0,0,0,0,0,0,0,0,0,0,0,0,0,0,0,0,0,0,0,0,0,0,0,0,0,0,0,0,0,0,0,0,0,0,0,0,0,0,0,0,0,0,0,0,0,0,0,0,0,0,0,4.7811,4.7812,0,4.7849,4.785,4.785,4.7854,4.7854,4.7853,4.7853,4.7894,4.7896,4.7897,0,0,0,0,0,0,0,0,0,0,0,0,0,4.7748,4.7749,4.7811,4.7812,4.7812,4.7849,4.785,4.785,4.7854,4.7854,4.7853,4.7853,4.7894,4.7896,4.7897,0,0,0,0,0,0,0,0,0,0,0,0,0,4.778,4.7749,4.7811,4.7819,4.782,4.7849,4.785,4.785,4.7854,4.7854,4.7853,4.7853,4.7893,4.7895,4.7898,4.7923,0,0,4.7904,4.7905,0,0,0,0,0,0,0,0,4.7778,4.7782,4.7817,4.7818,4.7819,4.7846,4.7843,4.7875,4.7855,4.7841,4.7853,4.7852,4.7879,4.7882,4.7891,4.7925,4.7927,4.7905,4.7906,4.7907,4.7907,0,0,0,0,0,0,0,4.7776,4.778,4.7826,4.7818,4.7819,4.7822,4.7826,4.7849,4.7863,4.7842,4.7843,4.7847,4.788,4.7889,4.7892,4.7927,4.7904,4.7906,4.7908,4.7909,4.799,4.7991,0,0,0,0,0,0,4.7771,4.7778,4.7825,4.7828,4.7797,4.7824,4.7828,4.7838,4.7863,4.7866,4.7848,4.7847,4.7885,4.7889,4.7893,4.7928,4.7907,4.7909,4.791,4.7989,4.799,4.7991,0,0,0,0,0,0,4.777,4.7776,4.7824,4.7803,4.781,4.7825,4.7837,4.7839,4.7848,4.7867,4.787,4.7854,4.7885,4.789,4.7917,4.7929,4.791,4.7912,4.7988,4.799,4.7991,4.7995,0,0,0,0,0,0,4.7768,4.7775,4.7783,4.7803,4.7811,4.7844,4.7838,4.7841,4.7852,4.7852,4.7873,4.7876,4.7885,4.7913,4.7919,4.7932,4.7914,4.7987,4.7989,4.799,4.7994,4.7996,4.7998,0,0,0,0,0,4.7766,4.7782,4.7783,4.7789,4.7821,4.7845,4.7849,4.7858,4.7853,4.7863,4.7875,4.7876,4.7927,4.7916,4.7922,4.7936,4.7986,4.7988,4.799,4.7993,4.7996,4.7998,0,0,0,0,0,0,4.7762,4.7785,4.7786,4.7809,4.7825,4.7846,4.7857,4.786,4.7878,4.7877,4.7889,4.7894,4.792,4.7931,4.7918,4.7965,4.7957,4.796,4.7956,4.7959,4.7962,4.7959,4.7915,0,0,0,0,0,4.7764,4.7781,4.78,4.7818,4.7827,4.7841,4.7852,4.7857,4.7875,4.7882,4.7896,4.7914,4.7935,4.7948,4.7967,4.7996,4.8003,4.8009,4.8011,4.8013,4.8016,4.8036,4.804,4.7997,4.7997,4.7997,0,0,4.7768,4.7783,4.7792,4.7818,4.7831,4.785,4.7846,4.7865,4.7881,4.7885,4.7911,4.7923,4.7944,4.7973,4.7986,4.7982,4.803,4.8016,4.8017,4.8019,4.8039,4.8043,4.8046,4.7999,4.7998,4.7998,0,0,4.7785,4.7797,4.7815,4.7829,4.7849,4.786,4.7864,4.7886,4.7894,4.792,4.7925,4.7945,4.7979,4.7995,4.8008,4.8037,4.804,4.8043,4.8055,4.8075,4.8078,4.8081,4.8095,4.8099,4.8046,4.8046,4.8046,0,4.7787,4.7814,4.7824,4.7844,4.7857,4.7863,4.7884,4.7898,4.7924,4.7934,4.7929,4.7976,4.799,4.8025,4.8033,4.8042,4.805,4.804,4.8077,4.808,4.8083,4.8096,4.81,4.8046,4.8046,4.8046,4.8046,0,4.7818,4.7837,4.785,4.7876,4.7891,4.7911,4.7926,4.7941,4.7947,4.7958,4.7988,4.8007,4.8032,4.8041,4.8046,4.8078,4.8076,4.8074,4.8066,4.8087,4.81,4.8105,4.8047,4.8047,4.8047,4.8047,0,0,4.783,4.7864,4.7869,4.7883,4.7908,4.7924,4.7947,4.7972,4.7986,4.8005,4.8026,4.8058,4.8058,4.8073,4.8081,4.8098,4.8125,4.8095,4.8096,4.8102,4.8165,4.8167,4.8172,4.8127,4.8128,4.8129,4.8164,0,4.7851,4.789,4.7902,4.7935,4.7956,4.7964,4.7985,4.8005,4.8018,4.8039,4.8054,4.8077,4.8074,4.8083,4.8101,4.8117,4.8138,4.8115,4.815,4.8151,4.8144,4.8178,4.8178,4.8211,4.8169,4.817,4.817,0,4.7879,4.79,4.7936,4.7963,4.7972,4.799,4.8017,4.8036,4.806,4.8069,4.8088,4.8096,4.8124,4.8115,4.8156,4.814,4.8156,4.8167,4.8169,4.8172,4.8161,4.8184,4.8221,4.8226,4.8177,4.8177,4.8176,0,4.7887,4.7924,4.7951,4.7963,4.7994,4.8008,4.8022,4.8046,4.8062,4.8086,4.8097,4.8125,4.814,4.8162,4.8179,4.8171,4.822,4.8211,4.823,4.823,4.8239,4.8238,4.828,4.8248,4.8248,4.8248,4.8248,0,4.7909,4.7931,4.7956,4.7972,4.7999,4.8015,4.8041,4.8057,4.8079,4.8101,4.8111,4.8132,4.8153,4.8178,4.8191,4.8225,4.8231,4.8241,4.8245,4.8241,4.824,4.8251,4.8249,4.8249,4.8249,4.8248,4.8248,0,4.7921,4.7938,4.7969,4.7998,4.8006,4.8025,4.8051,4.8069,4.8085,4.8113,4.8121,4.8145,4.8176,4.8196,4.8234,4.8244,4.8281,4.8283,4.8273,4.8274,4.8293,4.8291,4.8343,4.8352,4.8313,4.8314,4.8314,0,4.7933,4.7951,4.7983,4.7998,4.8013,4.8037,4.8055,4.8073,4.8091,4.8123,4.8139,4.817,4.8196,4.8245,4.8268,4.8299,4.8303,4.8319,4.8307,4.8305,4.8306,4.8305,4.8308,4.8321,4.8321,4.8321,4.8322,0,4.7955,4.7964,4.7987,4.8016,4.8036,4.806,4.8083,4.8096,4.8119,4.8139,4.8171,4.8191,4.8233,4.8265,4.8299,4.8317,4.8325,4.8326,4.8332,4.8328,4.8322,4.8328,4.8279,4.8324,4.8324,4.8324,4.8324,4.8323,4.7969,4.7986,4.8013,4.804,4.806,4.8083,4.8103,4.8123,4.8149,4.8183,4.8194,4.8227,4.8257,4.8304,4.8323,4.8352,4.835,4.8358,4.8361,4.8363,4.8364,4.8318,4.8358,4.8358,4.8358,4.8358,4.8358,0,4.7992,4.8011,4.8036,4.8069,4.8093,4.8098,4.8126,4.8146,4.8175,4.8201,4.8228,4.8267,4.83,4.8327,4.8362,4.8381,4.8386,4.839,4.8389,4.8393,4.8363,4.8355,4.8385,4.8385,4.8385,4.8385,4.8385,4.8385,4.8007,4.8038,4.8051,4.8095,4.8114,4.8146,4.8162,4.8185,4.8207,4.825,4.8278,4.8295,4.8324,4.8362,4.8394,4.8402,4.8415,4.8419,4.8427,4.8398,4.8395,4.8392,4.8385,4.8421,4.8421,4.8456,4.8456,4.8456]},{"header":{"parameterUnit":"m.s-1","parameterCategory":1,"la1":30.2991,"la2":30.254,"lo1":-89.0895,"lo2":-89.0444,"dy":0.0017,"dx":0.0017,"nx":28,"ny":28,"refTime":"2023-06-18T21:00:00:Z","depth":0,"parameterNumber":3,"parameterNumberName":"V-component_of_WINDS"},"data":[0,0,0,0,0,0,0,0,0,0,0,0,0,0,0,0,0,0,0,0,0,0,0,0,0,0,0,0,0,0,0,0,0,0,0,0,0,0,0,0,0,0,0,0,0,0,0,0,0,0,0,0,0,0,0,0,0,0,3.5929,3.593,0,3.6105,3.6107,3.6109,3.6135,3.6133,3.6131,3.613,3.6312,3.6318,3.6324,0,0,0,0,0,0,0,0,0,0,0,0,0,3.5615,3.5621,3.5928,3.5931,3.5933,3.6105,3.6107,3.6109,3.6135,3.6133,3.6131,3.6129,3.631,3.6317,3.6325,0,0,0,0,0,0,0,0,0,0,0,0,0,3.5767,3.5622,3.5928,3.5966,3.5971,3.6104,3.6107,3.611,3.6135,3.6133,3.613,3.6128,3.6307,3.6317,3.6326,3.6434,0,0,3.6355,3.6359,0,0,0,0,0,0,0,0,3.5759,3.5779,3.5958,3.5964,3.597,3.6095,3.6063,3.6219,3.6136,3.6073,3.613,3.6127,3.6242,3.6257,3.6295,3.6442,3.645,3.6356,3.6362,3.6366,3.6369,0,0,0,0,0,0,0,3.5748,3.5771,3.5998,3.5961,3.5968,3.5975,3.5994,3.6093,3.6169,3.6078,3.6081,3.6101,3.6245,3.6286,3.63,3.6453,3.6356,3.6364,3.637,3.6374,3.6697,3.6699,0,0,0,0,0,0,3.573,3.5762,3.5993,3.6003,3.5856,3.5983,3.6004,3.6057,3.6168,3.6182,3.6103,3.6102,3.6271,3.6288,3.6306,3.6439,3.6366,3.6375,3.638,3.6694,3.6697,3.67,0,0,0,0,0,0,3.5723,3.5751,3.5985,3.5884,3.5914,3.5991,3.6051,3.6062,3.6103,3.6187,3.62,3.6131,3.627,3.6293,3.6402,3.6446,3.6379,3.6388,3.6691,3.6695,3.6699,3.6706,0,0,0,0,0,0,3.5714,3.5748,3.5789,3.5884,3.5919,3.6078,3.6053,3.6067,3.612,3.612,3.6217,3.623,3.6269,3.6387,3.6411,3.6458,3.6395,3.6687,3.6692,3.6698,3.6702,3.671,3.6717,0,0,0,0,0,3.5703,3.5784,3.5791,3.5819,3.5972,3.608,3.61,3.6143,3.6123,3.6165,3.6219,3.6227,3.6437,3.6398,3.6425,3.6475,3.6684,3.6691,3.6697,3.6699,3.6709,3.6717,0,0,0,0,0,0,3.5693,3.5798,3.5806,3.5921,3.5991,3.6084,3.6139,3.6152,3.623,3.6226,3.6277,3.6299,3.6405,3.6451,3.6406,3.6585,3.6559,3.6571,3.6551,3.6561,3.6568,3.6555,3.6403,0,0,0,0,0,3.5704,3.5782,3.587,3.5962,3.5997,3.6062,3.611,3.6137,3.6212,3.6243,3.6304,3.6377,3.646,3.6513,3.6593,3.6709,3.6731,3.6757,3.6764,3.677,3.678,3.6845,3.6857,3.6722,3.6721,3.6721,0,0,3.5728,3.5794,3.5841,3.5962,3.602,3.61,3.6087,3.6172,3.6232,3.6256,3.6362,3.641,3.6495,3.6607,3.666,3.6649,3.6822,3.6778,3.6782,3.6789,3.6853,3.6865,3.6877,3.6726,3.6725,3.6724,0,0,3.5811,3.587,3.5953,3.6012,3.6099,3.6142,3.6162,3.6253,3.6286,3.6393,3.6412,3.6485,3.6626,3.6686,3.6735,3.6842,3.6852,3.6866,3.6904,3.6967,3.6978,3.6987,3.7026,3.7039,3.6876,3.6876,3.6876,0,3.583,3.5951,3.5995,3.608,3.6132,3.6157,3.6242,3.6297,3.6406,3.6443,3.6429,3.6606,3.6665,3.6792,3.6818,3.6857,3.6882,3.6855,3.6973,3.6983,3.6993,3.703,3.7044,3.6877,3.6877,3.6877,3.6877,0,3.5969,3.6053,3.611,3.6215,3.6274,3.6359,3.6416,3.6471,3.6493,3.6537,3.6646,3.6718,3.6813,3.6846,3.6868,3.6976,3.6967,3.6962,3.6937,3.7006,3.7042,3.7056,3.6879,3.6878,3.6878,3.6878,0,0,3.6051,3.6179,3.62,3.6247,3.6346,3.6412,3.6498,3.6591,3.6637,3.6712,3.6786,3.6904,3.6901,3.6956,3.6986,3.7041,3.7121,3.703,3.7032,3.7044,3.7245,3.7248,3.7263,3.7129,3.7132,3.7134,3.7238,0,3.6147,3.63,3.6342,3.6472,3.655,3.6575,3.665,3.6719,3.6763,3.6836,3.6884,3.6968,3.6957,3.699,3.7046,3.7099,3.7162,3.7092,3.7198,3.7201,3.7176,3.7282,3.7285,3.738,3.7252,3.7254,3.7256,0,3.6278,3.6355,3.6493,3.6582,3.6616,3.6682,3.6771,3.6841,3.692,3.6948,3.701,3.7034,3.7125,3.7095,3.7221,3.7173,3.7219,3.7252,3.7257,3.7268,3.7233,3.7296,3.7411,3.7425,3.7279,3.7277,3.7275,0,3.6324,3.6462,3.6562,3.6603,3.6709,3.6755,3.6802,3.6878,3.6931,3.7009,3.7045,3.7132,3.718,3.7248,3.7295,3.7269,3.7418,3.7391,3.7444,3.7443,3.7474,3.7472,3.7598,3.7504,3.7503,3.7503,3.7503,0,3.6425,3.6509,3.6584,3.6646,3.674,3.6788,3.688,3.6928,3.6996,3.7068,3.7095,3.7162,3.7221,3.7296,3.7334,3.7433,3.7454,3.748,3.7489,3.7477,3.7474,3.7508,3.7503,3.7507,3.7506,3.7505,3.7505,0,3.6492,3.6546,3.6657,3.6749,3.6774,3.6839,3.6918,3.6979,3.7024,3.7114,3.7138,3.7209,3.7298,3.7353,3.7466,3.7492,3.7602,3.7608,3.7575,3.7579,3.7629,3.7623,3.7781,3.7804,3.7694,3.7695,3.7696,0,3.6553,3.6618,3.6716,3.6766,3.6813,3.6893,3.6948,3.6998,3.7054,3.7149,3.7198,3.729,3.7366,3.7508,3.757,3.7657,3.7666,3.7715,3.7679,3.7666,3.7667,3.7663,3.7669,3.7721,3.7722,3.7723,3.7723,0,3.6656,3.6679,3.6757,3.6844,3.6908,3.6979,3.705,3.709,3.7152,3.7214,3.7305,3.7364,3.748,3.7571,3.7664,3.7712,3.7729,3.7734,3.7751,3.774,3.7718,3.7731,3.7591,3.773,3.773,3.7729,3.7729,3.7729,3.6722,3.678,3.6859,3.6945,3.7003,3.7069,3.7131,3.7184,3.7261,3.7359,3.7384,3.7481,3.7559,3.7685,3.7736,3.7813,3.7805,3.7829,3.7836,3.7841,3.7842,3.7706,3.783,3.783,3.7829,3.7829,3.7829,0,3.6826,3.6878,3.6956,3.7054,3.7122,3.7131,3.721,3.7266,3.7351,3.7422,3.7496,3.7602,3.769,3.7759,3.785,3.7898,3.7908,3.792,3.7917,3.7928,3.7844,3.782,3.7911,3.7911,3.7911,3.7911,3.7911,3.7911,3.6888,3.6988,3.7021,3.715,3.7202,3.7297,3.7341,3.7402,3.746,3.7577,3.765,3.7694,3.7765,3.7861,3.7943,3.7961,3.7993,3.8004,3.8023,3.7943,3.7934,3.7926,3.7904,3.8011,3.8011,3.8102,3.8103,3.8103]}]]